Fulton, NY

10:06 AM EST on December 06, 2019 (GMT -0500)
Oswego County

Weather History for KFZY - May, 2019

Change the Weather History Date:

Tuesday, May 21, 2019

  Actual Average (KSYR) Record (KSYR)
Temperature  
Mean Temperature 52 °F -  
Max Temperature 61 °F 68 °F 96 °F (1977)
Min Temperature 43 °F 48 °F 33 °F (1906)
Degree Days  
Heating Degree Days 13    
Growing Degree Days 2 (Base 50)    
Moisture  
Dew Point 38 °F    
Average Humidity 62    
Maximum Humidity 82    
Minimum Humidity 44    
Precipitation  
Precipitation 0.00 in - - ()
Sea Level Pressure  
Sea Level Pressure 30.06 in    
Wind  
Wind Speed 12 mph (WNW)    
Max Wind Speed 21 mph    
Max Gust Speed 26 mph    
Visibility 10 miles    
Events      
Averages and records for this station are not official NWS values.
T = Trace of Precipitation, MM = Missing Value Source: NWS Daily Summary

Daily Weather History Graph

Daily Weather History Graph

Search for Another Location

Airport or City:

Astronomy

May. 21, 2019 Rise Set
Actual Time 5:35 AM EDT 8:29 PM EDT
Civil Twilight 5:02 AM EDT 9:02 PM EDT
Nautical Twilight 4:19 AM EDT 9:45 PM EDT
Astronomical Twilight 3:30 AM EDT 10:35 PM EDT
Moon 11:24 PM EDT (5/21) 7:48 AM EDT (5/21)
Length of Visible Light 16h 00m
Length of Day
14h 53m
Waning Gibbous, 91% of the Moon is Illuminated
May 21
Waning Gibbous
May 26
Last Quarter
Jun 3
New
Jun 10
First Quarter
Jun 17
Full

Hourly Weather History & Observations

Time (EDT) Temp. Windchill Dew Point Humidity Pressure Visibility Wind Dir Wind Speed Gust Speed Precip Events Conditions
12:54 AM 46.9 °F - 37.9 °F 71% 29.94 in 10.0 mi West 12.7 mph 23.0 mph N/A   Overcast
1:54 AM 46.0 °F 39.6 °F 37.9 °F 73% 29.96 in 10.0 mi West 15.0 mph - N/A   Overcast
2:54 AM 45.0 °F 40.6 °F 37.9 °F 76% 29.96 in 10.0 mi West 8.1 mph - N/A   Overcast
3:54 AM 44.1 °F 38.6 °F 37.9 °F 79% 29.99 in 10.0 mi West 10.4 mph - N/A   Clear
4:54 AM 43.0 °F 37.2 °F 37.9 °F 82% 29.99 in 10.0 mi West 10.4 mph - N/A   Clear
5:54 AM 44.1 °F 37.7 °F 37.0 °F 76% 29.99 in 10.0 mi WNW 12.7 mph - N/A   Clear
6:54 AM 46.0 °F 40.6 °F 37.9 °F 73% 30.01 in 10.0 mi West 11.5 mph 21.9 mph N/A   Mostly Cloudy
7:54 AM 48.9 °F - 37.0 °F 64% 30.02 in 10.0 mi WNW 15.0 mph 24.2 mph N/A   Clear
8:54 AM 51.1 °F - 37.9 °F 61% 30.02 in 10.0 mi WNW 15.0 mph - N/A   Clear
9:54 AM 53.1 °F - 39.0 °F 59% 30.04 in 10.0 mi NW 12.7 mph 21.9 mph N/A   Clear
10:54 AM 53.1 °F - 37.9 °F 57% 30.06 in 10.0 mi NW 16.1 mph 24.2 mph N/A   Mostly Cloudy
11:10 AM 54.0 °F - 39.0 °F 57% 30.06 in 10.0 mi WNW 12.7 mph 23.0 mph N/A   Overcast
11:54 AM 54.0 °F - 39.0 °F 57% 30.08 in 10.0 mi WNW 16.1 mph 24.2 mph N/A   Overcast
12:54 PM 55.9 °F - 39.9 °F 55% 30.08 in 10.0 mi West 20.7 mph 26.5 mph N/A   Clear
1:54 PM 57.9 °F - 41.0 °F 53% 30.08 in 10.0 mi WNW 12.7 mph 21.9 mph N/A   Clear
2:54 PM 59.0 °F - 39.9 °F 49% 30.07 in 10.0 mi West 17.3 mph - N/A   Clear
3:54 PM 61.0 °F - 39.9 °F 46% 30.09 in 10.0 mi NW 16.1 mph 20.7 mph N/A   Clear
4:54 PM 60.1 °F - 39.0 °F 46% 30.09 in 10.0 mi WNW 16.1 mph - N/A   Clear
5:54 PM 60.1 °F - 37.9 °F 44% 30.10 in 10.0 mi WNW 12.7 mph - N/A   Clear
6:54 PM 57.9 °F - 37.9 °F 47% 30.11 in 10.0 mi WNW 9.2 mph - N/A   Clear
7:54 PM 54.0 °F - 37.0 °F 53% 30.12 in 10.0 mi WNW 8.1 mph - N/A   Clear
8:54 PM 50.0 °F - 36.0 °F 59% 30.14 in 10.0 mi WNW 5.8 mph - N/A   Clear
9:54 PM 46.9 °F - 36.0 °F 66% 30.16 in 10.0 mi NW 4.6 mph - N/A   Clear
10:54 PM 46.9 °F - 37.0 °F 68% 30.17 in 10.0 mi Calm Calm - N/A   Clear
11:54 PM 46.0 °F - 37.0 °F 71% 30.17 in 10.0 mi Calm Calm - N/A   Clear